Waarnemingen

Advertentie
Mijn weer
Brüssel, België (6451): temperatuur & dauwpunt: 22.03.2020 22:00:00 - 28.03.2020 22:00:00 (CET)Brüssel, België (6451): windsnelheid & windstoten: 22.03.2020 22:00:00 - 28.03.2020 22:00:00 (CET)Brüssel, België (6451): windrichting: 22.03.2020 22:00:00 - 28.03.2020 22:00:00 (CET)Brüssel, België (6451): luchtdruk: 22.03.2020 22:00:00 - 28.03.2020 22:00:00 (CET)Brüssel, België (6451): zicht: 22.03.2020 22:00:00 - 28.03.2020 22:00:00 (CET)
Datum & Tijd tt [°C] td [°C] ff [km/u] ff [kn] fx [km/u] fx [kn] dd ppp [hPa] vv [km]
28.03.2020 22:00:00 5,3 1,6 24 13 - - NNO 1027,4 10
28.03.2020 21:00:00 6,1 2,2 26 14 47 25 N 1026,7 10
28.03.2020 20:00:00 7,0 2,7 28 15 47 25 N 1025,9 10
28.03.2020 19:00:00 8,4 2,5 28 15 - - N 1024,9 10
28.03.2020 18:00:00 10,0 2,9 34 18 43 23 N 1023,9 10
28.03.2020 17:00:00 12,1 1,9 28 15 40 21 N 1023,4 10
28.03.2020 16:00:00 13,3 0,3 29 16 - - NNO 1023,1 10
28.03.2020 15:00:00 13,6 0,1 28 15 43 23 NNO 1023,1 10
28.03.2020 14:00:00 13,5 -0,5 29 16 40 21 NNO 1023,2 10
28.03.2020 13:00:00 12,8 1,2 28 15 - - NNO 1023,3 10
28.03.2020 12:00:00 11,7 1,9 22 12 32 18 NNO 1023,2 10
28.03.2020 11:00:00 10,2 2,2 22 12 32 18 NNO 1023,1 10
28.03.2020 10:00:00 8,1 1,5 18 10 - - NO 1022,8 10
28.03.2020 09:00:00 6,4 2,4 11 6 14 8 NO 1022,4 10
28.03.2020 08:00:00 3,9 1,6 8 4 11 6 N 1022,0 8
28.03.2020 07:00:00 2,5 0,5 8 4 - - N 1021,4 8
28.03.2020 06:00:00 3,1 0,6 8 4 7 4 N 1020,9 10
28.03.2020 05:00:00 3,8 0,8 5 3 11 6 N 1020,6 10
28.03.2020 04:00:00 3,8 0,7 5 3 - - N 1020,5 10
28.03.2020 03:00:00 5,0 0,8 5 3 7 4 NNW 1020,3 10
28.03.2020 02:00:00 5,1 0,7 5 3 7 4 NNO 1020,3 10
28.03.2020 01:00:00 5,1 1,3 8 4 - - NNO 1020,3 10
28.03.2020 00:00:00 6,8 0,8 5 3 11 6 NNO 1020,2 10
27.03.2020 23:00:00 7,7 1,6 8 4 11 6 NNO 1020,0 10
27.03.2020 22:00:00 8,2 0,8 4 2 - - NNO 1019,8 10
27.03.2020 21:00:00 9,2 0,9 5 3 7 4 N 1019,6 10
27.03.2020 20:00:00 9,4 -0,1 5 3 11 6 N 1019,3 10
27.03.2020 19:00:00 10,8 2,1 8 4 - - ONO 1018,8 10
27.03.2020 18:00:00 13,0 1,9 13 7 29 16 ONO 1018,2 10
27.03.2020 17:00:00 13,8 0,5 15 8 29 16 ONO 1018,2 10
27.03.2020 16:00:00 13,9 0,0 15 8 - - ONO 1018,3 10
27.03.2020 15:00:00 12,8 -0,1 15 8 29 16 NO 1018,7 10
27.03.2020 14:00:00 11,7 -0,6 15 8 29 16 NO 1019,2 10
27.03.2020 13:00:00 10,4 -1,3 13 7 - - NO 1019,6 10
27.03.2020 12:00:00 8,9 -1,8 9 5 18 10 NNO 1020,1 10
27.03.2020 11:00:00 7,4 -1,6 11 6 18 10 ONO 1020,5 10
27.03.2020 10:00:00 5,8 -2,4 11 6 - - ONO 1020,7 10
27.03.2020 09:00:00 4,0 -2,0 9 5 14 8 NO 1020,4 10
27.03.2020 08:00:00 0,9 -2,1 8 4 11 6 NNO 1020,6 10
27.03.2020 07:00:00 0,1 -3,1 8 4 - - NNO 1020,8 10
27.03.2020 06:00:00 0,7 -3,5 5 3 7 4 N 1020,5 10
27.03.2020 05:00:00 0,9 -3,5 5 3 7 4 N 1020,4 10
27.03.2020 04:00:00 1,4 -4,0 4 2 - - NNO 1020,6 10
27.03.2020 03:00:00 2,1 -4,0 4 2 7 4 NNO 1020,7 10
27.03.2020 02:00:00 2,8 -3,4 4 2 11 6 NO 1021,0 10
27.03.2020 01:00:00 3,1 -2,6 8 4 - - NO 1021,2 10
27.03.2020 00:00:00 3,6 -3,1 5 3 11 6 NO 1021,3 10
26.03.2020 23:00:00 3,7 -2,5 8 4 14 8 NO 1021,4 10
26.03.2020 22:00:00 4,4 -3,2 9 5 - - NO 1021,4 10
26.03.2020 21:00:00 5,9 -4,0 8 4 11 6 ONO 1021,4 10
26.03.2020 20:00:00 6,2 -3,3 8 4 22 12 ONO 1021,1 10
26.03.2020 19:00:00 7,7 -3,6 11 6 - - NO 1020,6 10
26.03.2020 18:00:00 9,9 -5,2 15 8 32 18 O 1020,5 10
26.03.2020 17:00:00 10,2 -5,6 18 10 32 18 O 1020,5 10
26.03.2020 16:00:00 10,4 -5,1 18 10 - - ONO 1020,6 10
26.03.2020 15:00:00 10,3 -6,5 16 9 36 19 O 1020,9 10
26.03.2020 14:00:00 9,8 -6,6 21 11 36 19 O 1021,1 10
26.03.2020 13:00:00 9,1 -6,7 24 13 - - ONO 1021,4 10
26.03.2020 12:00:00 8,4 -6,1 21 11 40 21 O 1021,7 10
26.03.2020 11:00:00 7,1 -6,2 21 11 32 18 ONO 1022,0 10
26.03.2020 10:00:00 5,8 -7,1 18 10 - - ONO 1022,4 10
26.03.2020 09:00:00 3,8 -7,1 16 9 25 14 ONO 1022,5 10
26.03.2020 08:00:00 1,8 -6,8 13 7 22 12 O 1022,3 10
26.03.2020 07:00:00 0,6 -7,1 11 6 - - O 1022,3 10
26.03.2020 06:00:00 0,2 -6,1 9 5 14 8 ONO 1021,9 10
26.03.2020 05:00:00 0,7 -6,4 5 3 11 6 ONO 1021,9 10
26.03.2020 04:00:00 1,3 -7,0 5 3 - - ONO 1022,3 10
26.03.2020 03:00:00 2,3 -6,4 9 5 14 8 ONO 1022,4 10
26.03.2020 02:00:00 3,6 -6,8 9 5 18 10 O 1022,8 10
26.03.2020 01:00:00 4,5 -6,5 11 6 - - O 1022,8 10
26.03.2020 00:00:00 5,4 -6,5 13 7 18 10 ONO 1022,7 10
25.03.2020 23:00:00 4,4 -6,4 5 3 14 8 ONO 1023,0 10
25.03.2020 22:00:00 3,3 -4,1 9 5 - - NO 1023,1 10
25.03.2020 21:00:00 4,7 -4,3 8 4 14 8 NO 1022,8 10
25.03.2020 20:00:00 5,6 -3,7 11 6 22 12 ONO 1022,6 10
25.03.2020 19:00:00 7,9 -5,7 15 8 - - NO 1022,4 10
25.03.2020 18:00:00 10,3 -8,8 13 7 36 19 O 1022,8 10
25.03.2020 17:00:00 10,7 -8,5 21 11 36 19 O 1023,3 10
25.03.2020 16:00:00 11,1 -7,9 18 10 - - ONO 1023,5 30
25.03.2020 15:00:00 10,7 -8,3 15 8 25 14 ONO 1024,1 10
25.03.2020 14:00:00 10,1 -7,6 11 6 25 14 O 1025,0 10
25.03.2020 13:00:00 8,8 -8,0 15 8 - - ONO 1026,0 10
25.03.2020 12:00:00 7,3 -7,8 11 6 22 12 ONO 1026,7 10
25.03.2020 11:00:00 6,3 -9,0 9 5 14 8 ONO 1027,3 10
25.03.2020 10:00:00 4,7 -8,0 8 4 - - O 1027,6 10
25.03.2020 09:00:00 2,2 -7,6 8 4 11 6 OZO 1027,8 10
25.03.2020 08:00:00 -0,6 -5,3 5 3 7 4 O 1027,8 10
25.03.2020 07:00:00 -1,6 -8,5 5 3 - - ONO 1027,4 10
25.03.2020 06:00:00 -2,0 -7,7 0 0 11 6 N 1027,2 10
25.03.2020 05:00:00 -0,2 -8,2 8 4 11 6 O 1027,1 10
25.03.2020 04:00:00 0,5 -9,0 5 3 - - ONO 1027,2 10
25.03.2020 03:00:00 0,9 -7,7 5 3 7 4 OZO 1027,2 10
25.03.2020 02:00:00 1,7 -6,8 4 2 11 6 OZO 1027,5 10
25.03.2020 01:00:00 2,5 -7,8 8 4 - - OZO 1027,7 10
25.03.2020 00:00:00 3,7 -8,2 8 4 22 12 OZO 1028,2 10
24.03.2020 23:00:00 5,2 -8,3 15 8 22 12 ZO 1028,3 10
24.03.2020 22:00:00 5,7 -6,7 11 6 - - OZO 1028,2 10
24.03.2020 21:00:00 6,7 -6,5 9 5 22 12 O 1027,8 10
24.03.2020 20:00:00 7,4 -6,9 8 4 14 8 O 1027,8 10
24.03.2020 19:00:00 9,8 -8,6 9 5 - - OZO 1027,6 10
24.03.2020 18:00:00 11,2 -9,4 11 6 22 12 ZO 1027,5 10
24.03.2020 17:00:00 11,5 -8,2 16 9 29 16 ZO 1027,7 10
24.03.2020 16:00:00 11,5 -8,6 36 19 - - OZO 1027,9 10
24.03.2020 15:00:00 11,0 -8,7 36 19 29 16 ZO 1028,6 10
24.03.2020 14:00:00 10,3 -6,5 29 16 29 16 OZO 1029,2 10
24.03.2020 13:00:00 9,1 -7,6 25 14 - - OZO 1030,1 10
24.03.2020 12:00:00 7,9 -6,5 25 14 25 14 O 1030,6 10
24.03.2020 11:00:00 6,8 -8,5 29 16 25 14 OZO 1031,0 10
24.03.2020 10:00:00 5,2 -9,0 25 14 - - OZO 1030,8 10
24.03.2020 09:00:00 2,3 -6,8 15 8 11 6 O 1030,7 10
24.03.2020 08:00:00 -0,3 -6,8 10 6 11 6 ONO 1030,9 10
24.03.2020 07:00:00 -1,6 -7,7 7 4 - - - 1030,5 10
24.03.2020 06:00:00 -0,1 -7,5 15 8 14 8 ZO 1029,8 10
24.03.2020 05:00:00 -0,9 -6,5 10 6 7 4 OZO 1030,1 10
24.03.2020 04:00:00 0,2 -8,1 7 4 - - ONO 1030,3 10
24.03.2020 03:00:00 1,0 -7,7 18 10 14 8 ZO 1029,9 10
24.03.2020 02:00:00 1,9 -7,8 22 12 18 10 OZO 1029,9 10
24.03.2020 01:00:00 3,0 -8,4 25 14 - - ZO 1029,7 10
24.03.2020 00:00:00 3,6 -8,2 36 19 29 16 OZO 1029,8 10
23.03.2020 23:00:00 4,5 -7,5 29 16 22 12 OZO 1030,3 10
23.03.2020 22:00:00 5,2 -6,4 22 12 - - OZO 1030,0 10
23.03.2020 21:00:00 6,4 -6,6 25 14 25 14 OZO 1029,5 10
23.03.2020 20:00:00 8,1 -7,9 29 16 25 14 OZO 1029,4 10
23.03.2020 19:00:00 9,5 -9,0 29 16 - - OZO 1029,3 10
23.03.2020 18:00:00 10,8 -9,2 36 19 32 18 OZO 1029,1 10
23.03.2020 17:00:00 11,5 -8,6 40 22 40 21 OZO 1029,1 10
23.03.2020 16:00:00 11,3 -10,5 47 25 - - OZO 1029,1 10
23.03.2020 15:00:00 11,1 -9,0 40 22 40 21 OZO 1029,5 10
23.03.2020 14:00:00 9,9 -8,7 44 24 32 18 OZO 1030,1 10
23.03.2020 13:00:00 8,1 -8,6 16 9 - - O 1030,8 10
23.03.2020 12:00:00 6,5 -8,0 22 12 32 18 OZO 1031,0 10
23.03.2020 11:00:00 5,1 -7,3 16 9 32 18 OZO 1031,1 10
23.03.2020 10:00:00 4,2 -7,1 16 9 - - OZO 1031,3 10
23.03.2020 09:00:00 2,4 -7,8 15 8 22 12 O 1031,0 10
23.03.2020 08:00:00 0,6 -6,9 11 6 22 12 O 1030,9 10
23.03.2020 07:00:00 -0,5 -6,7 9 5 - - O 1030,6 10
23.03.2020 06:00:00 -0,1 -6,4 9 5 18 10 O 1030,5 10
23.03.2020 05:00:00 0,4 -6,2 9 5 18 10 O 1030,2 10
23.03.2020 04:00:00 0,9 -5,8 9 5 - - O 1030,0 10
23.03.2020 03:00:00 1,6 -5,5 11 6 22 12 O 1030,1 10
23.03.2020 02:00:00 2,3 -5,4 15 8 25 14 O 1029,9 10
23.03.2020 01:00:00 3,2 -5,1 15 8 - - O 1029,7 10
23.03.2020 00:00:00 4,2 -4,8 16 9 32 18 O 1029,7 10
22.03.2020 23:00:00 4,9 -5,3 16 9 32 18 O 1029,6 10
22.03.2020 22:00:00 5,8 -4,6 16 9 - - O 1029,2 10

tt = temperatuur
td = dauwpunt
ff = windsnelheid
fx = windstoten
dd = windrichting
ppp = luchtdruk
vv = zicht

Weerstations in de omgeving